Time,TemperatureF,DewpointF,PressureIn,WindDirection,WindDirectionDegrees,WindSpeedMPH,WindSpeedGustMPH,Humidity,HourlyPrecipIn,Conditions,Clouds,dailyrainin,SolarRadiationWatts/m^2,SoftwareType,DateUTC
2013-03-13 00:00:00,25.4,18.6,30.06,NW,326,10.0,14.0,75,0.00,,,0.01,0,Wunderground v.1.15,2013-03-13 05:00:00,
2013-03-13 00:04:00,25.3,18.8,30.06,NW,315,8.0,13.0,76,0.00,,,0.01,0,Wunderground v.1.15,2013-03-13 05:04:00,
2013-03-13 00:09:00,25.2,19.0,30.06,WNW,294,7.0,17.0,77,0.00,,,0.00,0,Wunderground v.1.15,2013-03-13 05:09:00,
2013-03-13 00:14:00,25.0,19.1,30.07,WNW,297,5.0,14.0,78,0.00,,,0.00,0,Wunderground v.1.15,2013-03-13 05:14:00,
2013-03-13 00:19:00,24.9,19.3,30.07,NW,309,7.0,14.0,79,0.00,,,0.00,0,Wunderground v.1.15,2013-03-13 05:19:00,
2013-03-13 00:25:00,24.8,19.5,30.07,West,281,7.0,14.0,80,0.00,,,0.00,0,Wunderground v.1.15,2013-03-13 05:25:00,
2013-03-13 00:30:00,24.7,19.7,30.07,WNW,296,9.0,9.0,81,0.00,,,0.00,0,Wunderground v.1.15,2013-03-13 05:30:00,
2013-03-13 00:34:00,24.6,19.6,30.07,WNW,303,3.0,12.0,81,0.00,,,0.00,0,Wunderground v.1.15,2013-03-13 05:34:00,
2013-03-13 00:39:00,24.6,19.6,30.07,NW,322,8.0,16.0,81,0.00,,,0.00,0,Wunderground v.1.15,2013-03-13 05:39:00,
2013-03-13 00:44:00,24.5,19.5,30.07,WNW,303,7.0,16.0,81,0.00,,,0.00,0,Wunderground v.1.15,2013-03-13 05:44:00,
2013-03-13 00:49:00,24.5,19.5,30.07,NNW,330,8.0,16.0,81,0.00,,,0.00,0,Wunderground v.1.15,2013-03-13 05:49:00,
2013-03-13 00:54:00,24.4,19.1,30.07,NW,311,10.0,16.0,80,0.00,,,0.00,0,Wunderground v.1.15,2013-03-13 05:54:00,
2013-03-13 00:59:00,24.2,18.6,30.08,North,355,3.0,16.0,79,0.00,,,0.00,0,Wunderground v.1.15,2013-03-13 05:59:00,
2013-03-13 01:04:00,24.1,18.5,30.07,NNW,342,2.0,14.0,79,0.00,,,0.00,0,Wunderground v.1.15,2013-03-13 06:04:00,
2013-03-13 01:10:00,23.9,18.3,30.08,NW,315,7.0,7.0,79,0.00,,,0.00,0,Wunderground v.1.15,2013-03-13 06:10:00,
2013-03-13 01:15:00,23.8,18.2,30.08,NW,316,4.0,14.0,79,0.00,,,0.00,0,Wunderground v.1.15,2013-03-13 06:15:00,
2013-03-13 01:20:00,23.6,17.7,30.08,NNW,336,3.0,5.0,78,0.00,,,0.00,0,Wunderground v.1.15,2013-03-13 06:20:00,
2013-03-13 01:25:00,23.5,17.9,30.08,NW,318,7.0,9.0,79,0.00,,,0.00,0,Wunderground v.1.15,2013-03-13 06:25:00,
2013-03-13 01:30:00,23.3,17.5,30.09,NNW,327,11.0,11.0,78,0.00,,,0.00,0,Wunderground v.1.15,2013-03-13 06:30:00,
2013-03-13 01:35:00,23.0,16.6,30.09,NW,323,3.0,13.0,76,0.00,,,0.00,0,Wunderground v.1.15,2013-03-13 06:35:00,
2013-03-13 01:40:00,22.9,16.2,30.09,NW,306,2.0,7.0,75,0.00,,,0.00,0,Wunderground v.1.15,2013-03-13 06:40:00,
2013-03-13 01:45:00,22.6,15.9,30.10,NW,321,7.0,11.0,75,0.00,,,0.00,0,Wunderground v.1.15,2013-03-13 06:45:00,
2013-03-13 01:50:00,22.5,15.8,30.10,NW,322,9.0,9.0,75,0.00,,,0.00,0,Wunderground v.1.15,2013-03-13 06:50:00,
2013-03-13 01:55:00,22.4,15.7,30.10,NW,321,10.0,12.0,75,0.00,,,0.00,0,Wunderground v.1.15,2013-03-13 06:55:00,
2013-03-13 02:00:00,22.3,15.6,30.10,NNW,327,7.0,8.0,75,0.00,,,0.00,0,Wunderground v.1.15,2013-03-13 07:00:00,
2013-03-13 02:04:00,22.1,15.4,30.10,NW,312,3.0,11.0,75,0.00,,,0.00,0,Wunderground v.1.15,2013-03-13 07:04:00,
2013-03-13 02:09:00,22.0,15.3,30.10,NW,323,7.0,14.0,75,0.00,,,0.00,0,Wunderground v.1.15,2013-03-13 07:09:00,
2013-03-13 02:14:00,21.8,15.4,30.11,NW,311,9.0,14.0,76,0.00,,,0.00,0,Wunderground v.1.15,2013-03-13 07:14:00,
2013-03-13 02:19:00,21.7,15.3,30.11,NW,311,6.0,14.0,76,0.00,,,0.00,0,Wunderground v.1.15,2013-03-13 07:19:00,
2013-03-13 02:24:00,21.6,15.2,30.11,NW,311,4.0,15.0,76,0.00,,,0.00,0,Wunderground v.1.15,2013-03-13 07:24:00,
2013-03-13 02:29:00,21.6,15.2,30.11,NNW,331,3.0,15.0,76,0.00,,,0.00,0,Wunderground v.1.15,2013-03-13 07:29:00,
2013-03-13 02:34:00,21.5,15.1,30.11,NW,321,2.0,11.0,76,0.00,,,0.00,0,Wunderground v.1.15,2013-03-13 07:34:00,
2013-03-13 02:39:00,21.4,15.0,30.11,NW,314,4.0,11.0,76,0.00,,,0.00,0,Wunderground v.1.15,2013-03-13 07:39:00,
2013-03-13 02:44:00,21.3,15.2,30.11,WNW,292,7.0,7.0,77,0.00,,,0.00,0,Wunderground v.1.15,2013-03-13 07:44:00,
2013-03-13 02:49:00,21.2,15.1,30.11,West,281,8.0,11.0,77,0.00,,,0.00,0,Wunderground v.1.15,2013-03-13 07:49:00,
2013-03-13 02:54:00,21.1,15.3,30.12,WNW,298,3.0,10.0,78,0.00,,,0.00,0,Wunderground v.1.15,2013-03-13 07:54:00,
2013-03-13 02:59:00,21.1,15.3,30.12,NW,306,8.0,10.0,78,0.00,,,0.00,0,Wunderground v.1.15,2013-03-13 07:59:00,
2013-03-13 03:04:00,21.1,15.6,30.12,WNW,286,6.0,9.0,79,0.00,,,0.00,0,Wunderground v.1.15,2013-03-13 08:04:00,
2013-03-13 03:09:00,21.1,15.6,30.12,NW,313,7.0,15.0,79,0.00,,,0.00,0,Wunderground v.1.15,2013-03-13 08:09:00,
2013-03-13 03:14:00,21.0,15.5,30.13,WNW,292,2.0,15.0,79,0.00,,,0.00,0,Wunderground v.1.15,2013-03-13 08:14:00,
2013-03-13 03:19:00,20.9,15.4,30.12,NW,324,6.0,15.0,79,0.00,,,0.00,0,Wunderground v.1.15,2013-03-13 08:19:00,
2013-03-13 03:24:00,20.9,15.4,30.12,NNW,336,9.0,14.0,79,0.00,,,0.00,0,Wunderground v.1.15,2013-03-13 08:24:00,
2013-03-13 03:29:00,20.9,15.4,30.12,NW,317,6.0,14.0,79,0.00,,,0.00,0,Wunderground v.1.15,2013-03-13 08:29:00,
2013-03-13 03:34:00,20.9,15.4,30.13,NW,314,9.0,13.0,79,0.00,,,0.00,0,Wunderground v.1.15,2013-03-13 08:34:00,
2013-03-13 03:39:00,20.9,15.4,30.13,NW,319,12.0,14.0,79,0.00,,,0.00,0,Wunderground v.1.15,2013-03-13 08:39:00,
2013-03-13 03:44:00,20.9,15.4,30.13,NW,319,5.0,12.0,79,0.00,,,0.00,0,Wunderground v.1.15,2013-03-13 08:44:00,
2013-03-13 03:49:00,20.8,15.3,30.13,NNW,329,11.0,16.0,79,0.00,,,0.00,0,Wunderground v.1.15,2013-03-13 08:49:00,
2013-03-13 03:54:00,20.8,15.3,30.13,NW,317,5.0,11.0,79,0.00,,,0.00,0,Wunderground v.1.15,2013-03-13 08:54:00,
2013-03-13 03:59:00,20.7,15.2,30.13,NW,308,7.0,11.0,79,0.00,,,0.00,0,Wunderground v.1.15,2013-03-13 08:59:00,
2013-03-13 04:04:00,20.7,15.2,30.14,NW,310,5.0,13.0,79,0.00,,,0.00,0,Wunderground v.1.15,2013-03-13 09:04:00,
2013-03-13 04:09:00,20.6,15.1,30.14,West,273,7.0,16.0,79,0.00,,,0.00,0,Wunderground v.1.15,2013-03-13 09:09:00,
2013-03-13 04:14:00,20.5,15.0,30.14,NW,323,9.0,13.0,79,0.00,,,0.00,0,Wunderground v.1.15,2013-03-13 09:14:00,
2013-03-13 04:19:00,20.4,15.2,30.14,NW,325,8.0,14.0,80,0.00,,,0.00,0,Wunderground v.1.15,2013-03-13 09:19:00,
2013-03-13 04:24:00,20.3,14.8,30.14,NW,311,7.0,15.0,79,0.00,,,0.00,0,Wunderground v.1.15,2013-03-13 09:24:00,
2013-03-13 04:29:00,20.3,14.8,30.14,NW,318,7.0,15.0,79,0.00,,,0.00,0,Wunderground v.1.15,2013-03-13 09:29:00,
2013-03-13 04:34:00,20.2,14.7,30.14,NW,307,4.0,13.0,79,0.00,,,0.00,0,Wunderground v.1.15,2013-03-13 09:34:00,
2013-03-13 04:39:00,20.2,14.7,30.15,NW,321,9.0,13.0,79,0.00,,,0.00,0,Wunderground v.1.15,2013-03-13 09:39:00,
2013-03-13 04:44:00,20.1,14.6,30.15,NW,304,4.0,15.0,79,0.00,,,0.00,0,Wunderground v.1.15,2013-03-13 09:44:00,
2013-03-13 04:49:00,20.0,14.8,30.15,NW,307,7.0,15.0,80,0.00,,,0.00,0,Wunderground v.1.15,2013-03-13 09:49:00,
2013-03-13 04:54:00,20.0,14.8,30.15,NW,323,9.0,13.0,80,0.00,,,0.00,0,Wunderground v.1.15,2013-03-13 09:54:00,
2013-03-13 04:59:00,19.9,14.7,30.16,WNW,289,10.0,13.0,80,0.00,,,0.00,0,Wunderground v.1.15,2013-03-13 09:59:00,
2013-03-13 05:04:00,19.9,14.7,30.16,WNW,288,10.0,13.0,80,0.00,,,0.00,0,Wunderground v.1.15,2013-03-13 10:04:00,
2013-03-13 05:09:00,19.8,14.6,30.16,WNW,296,7.0,13.0,80,0.00,,,0.00,0,Wunderground v.1.15,2013-03-13 10:09:00,
2013-03-13 05:14:00,19.8,14.6,30.16,NW,309,4.0,18.0,80,0.00,,,0.00,0,Wunderground v.1.15,2013-03-13 10:14:00,
2013-03-13 05:19:00,19.8,14.6,30.16,West,277,5.0,18.0,80,0.00,,,0.00,0,Wunderground v.1.15,2013-03-13 10:19:00,
2013-03-13 05:24:00,19.8,14.6,30.16,NW,311,4.0,13.0,80,0.00,,,0.00,0,Wunderground v.1.15,2013-03-13 10:24:00,
2013-03-13 05:29:00,19.8,14.6,30.16,NW,307,4.0,13.0,80,0.00,,,0.00,0,Wunderground v.1.15,2013-03-13 10:29:00,
2013-03-13 05:34:00,19.8,14.3,30.17,WNW,300,5.0,14.0,79,0.00,,,0.00,0,Wunderground v.1.15,2013-03-13 10:34:00,
2013-03-13 05:39:00,19.7,14.2,30.17,NW,312,5.0,14.0,79,0.00,,,0.00,0,Wunderground v.1.15,2013-03-13 10:39:00,
2013-03-13 05:44:00,19.6,14.1,30.17,NW,323,5.0,10.0,79,0.00,,,0.00,0,Wunderground v.1.15,2013-03-13 10:44:00,
2013-03-13 05:49:00,19.6,14.1,30.18,WNW,288,4.0,10.0,79,0.00,,,0.00,0,Wunderground v.1.15,2013-03-13 10:49:00,
2013-03-13 05:54:00,19.5,14.0,30.18,WNW,289,7.0,14.0,79,0.00,,,0.00,0,Wunderground v.1.15,2013-03-13 10:54:00,
2013-03-13 05:59:00,19.4,13.9,30.18,WNW,288,3.0,14.0,79,0.00,,,0.00,0,Wunderground v.1.15,2013-03-13 10:59:00,
2013-03-13 06:04:00,19.3,14.1,30.18,WNW,297,5.0,9.0,80,0.00,,,0.00,0,Wunderground v.1.15,2013-03-13 11:04:00,
2013-03-13 06:09:00,19.2,14.0,30.19,NW,307,4.0,14.0,80,0.00,,,0.00,0,Wunderground v.1.15,2013-03-13 11:09:00,
2013-03-13 06:14:00,19.2,14.0,30.18,West,259,4.0,10.0,80,0.00,,,0.00,0,Wunderground v.1.15,2013-03-13 11:14:00,
2013-03-13 06:19:00,19.1,13.9,30.19,NW,315,6.0,10.0,80,0.00,,,0.00,0,Wunderground v.1.15,2013-03-13 11:19:00,
2013-03-13 06:24:00,19.1,13.9,30.18,WNW,292,4.0,8.0,80,0.00,,,0.00,0,Wunderground v.1.15,2013-03-13 11:24:00,
2013-03-13 06:29:00,19.1,13.9,30.19,NW,309,2.0,9.0,80,0.00,,,0.00,0,Wunderground v.1.15,2013-03-13 11:29:00,
2013-03-13 06:34:00,19.0,13.8,30.19,NW,309,7.0,11.0,80,0.00,,,0.00,0,Wunderground v.1.15,2013-03-13 11:34:00,
2013-03-13 06:39:00,19.0,13.8,30.19,NW,313,10.0,13.0,80,0.00,,,0.00,0,Wunderground v.1.15,2013-03-13 11:39:00,
2013-03-13 06:44:00,19.0,13.8,30.19,NW,312,5.0,12.0,80,0.00,,,0.00,0,Wunderground v.1.15,2013-03-13 11:44:00,
2013-03-13 06:49:00,19.0,13.8,30.20,WNW,287,5.0,12.0,80,0.00,,,0.00,0,Wunderground v.1.15,2013-03-13 11:49:00,
2013-03-13 06:54:00,18.9,13.7,30.20,WNW,301,5.0,10.0,80,0.00,,,0.00,0,Wunderground v.1.15,2013-03-13 11:54:00,
2013-03-13 06:59:00,18.9,13.7,30.20,WNW,297,7.0,10.0,80,0.00,,,0.00,0,Wunderground v.1.15,2013-03-13 11:59:00,
2013-03-13 07:04:00,18.9,13.7,30.20,NW,312,3.0,11.0,80,0.00,,,0.00,0,Wunderground v.1.15,2013-03-13 12:04:00,
2013-03-13 07:09:00,18.9,13.7,30.20,NW,312,6.0,11.0,80,0.00,,,0.00,0,Wunderground v.1.15,2013-03-13 12:09:00,
2013-03-13 07:14:00,18.9,13.7,30.20,NW,304,6.0,8.0,80,0.00,,,0.00,5,Wunderground v.1.15,2013-03-13 12:14:00,
2013-03-13 07:19:00,18.9,13.7,30.20,NW,306,5.0,11.0,80,0.00,,,0.00,9,Wunderground v.1.15,2013-03-13 12:19:00,
2013-03-13 07:24:00,18.9,13.7,30.21,WNW,282,6.0,11.0,80,0.00,,,0.00,14,Wunderground v.1.15,2013-03-13 12:24:00,
2013-03-13 07:29:00,19.0,13.8,30.21,WNW,287,5.0,13.0,80,0.00,,,0.00,21,Wunderground v.1.15,2013-03-13 12:29:00,
2013-03-13 07:34:00,19.0,13.8,30.22,WNW,294,2.0,10.0,80,0.00,,,0.00,28,Wunderground v.1.15,2013-03-13 12:34:00,
2013-03-13 07:39:00,18.9,13.7,30.22,WNW,288,4.0,10.0,80,0.00,,,0.00,37,Wunderground v.1.15,2013-03-13 12:39:00,
2013-03-13 07:44:00,18.9,13.7,30.22,NW,304,3.0,10.0,80,0.00,,,0.00,47,Wunderground v.1.15,2013-03-13 12:44:00,
2013-03-13 07:49:00,19.0,13.8,30.22,WNW,302,7.0,12.0,80,0.00,,,0.00,56,Wunderground v.1.15,2013-03-13 12:49:00,
2013-03-13 07:54:00,19.0,13.8,30.23,West,272,8.0,11.0,80,0.00,,,0.00,60,Wunderground v.1.15,2013-03-13 12:54:00,
2013-03-13 07:59:00,19.1,13.9,30.23,WNW,291,7.0,14.0,80,0.00,,,0.00,60,Wunderground v.1.15,2013-03-13 12:59:00,
2013-03-13 08:04:00,19.1,13.9,30.23,WNW,283,7.0,10.0,80,0.00,,,0.00,98,Wunderground v.1.15,2013-03-13 13:04:00,
2013-03-13 08:09:00,19.3,13.9,30.24,West,263,4.0,13.0,79,0.00,,,0.00,69,Wunderground v.1.15,2013-03-13 13:09:00,
2013-03-13 08:14:00,19.3,13.9,30.24,NW,310,5.0,12.0,79,0.00,,,0.00,56,Wunderground v.1.15,2013-03-13 13:14:00,
2013-03-13 08:19:00,19.3,13.6,30.24,NW,318,6.0,13.0,78,0.00,,,0.00,139,Wunderground v.1.15,2013-03-13 13:19:00,
2013-03-13 08:24:00,19.5,13.8,30.24,West,273,4.0,13.0,78,0.00,,,0.00,193,Wunderground v.1.15,2013-03-13 13:24:00,
2013-03-13 08:29:00,19.9,14.1,30.24,WNW,300,8.0,13.0,78,0.00,,,0.00,213,Wunderground v.1.15,2013-03-13 13:29:00,
2013-03-13 08:34:00,20.1,14.0,30.24,NW,313,5.0,11.0,77,0.00,,,0.00,229,Wunderground v.1.15,2013-03-13 13:34:00,
2013-03-13 08:39:00,20.3,13.9,30.25,NW,321,6.0,11.0,76,0.00,,,0.00,251,Wunderground v.1.15,2013-03-13 13:39:00,
2013-03-13 08:44:00,20.5,14.1,30.25,NW,313,7.0,12.0,76,0.00,,,0.00,283,Wunderground v.1.15,2013-03-13 13:44:00,
2013-03-13 08:49:00,20.7,14.0,30.25,WNW,288,8.0,17.0,75,0.00,,,0.00,322,Wunderground v.1.15,2013-03-13 13:49:00,
2013-03-13 08:54:00,21.0,14.0,30.25,NW,323,8.0,13.0,74,0.00,,,0.00,350,Wunderground v.1.15,2013-03-13 13:54:00,
2013-03-13 08:59:00,21.4,14.4,30.25,WNW,297,4.0,13.0,74,0.00,,,0.00,378,Wunderground v.1.15,2013-03-13 13:59:00,
2013-03-13 09:04:00,21.8,14.2,30.25,NW,322,8.0,14.0,72,0.00,,,0.00,378,Wunderground v.1.15,2013-03-13 14:04:00,
2013-03-13 09:09:00,22.0,14.3,30.26,NW,309,5.0,14.0,72,0.00,,,0.00,318,Wunderground v.1.15,2013-03-13 14:09:00,
2013-03-13 09:14:00,22.2,14.2,30.26,NW,307,4.0,14.0,71,0.00,,,0.00,381,Wunderground v.1.15,2013-03-13 14:14:00,
2013-03-13 09:19:00,22.4,14.1,30.26,NW,304,9.0,15.0,70,0.00,,,0.00,410,Wunderground v.1.15,2013-03-13 14:19:00,
2013-03-13 09:24:00,22.5,13.9,30.26,NW,312,4.0,12.0,69,0.00,,,0.00,267,Wunderground v.1.15,2013-03-13 14:24:00,
2013-03-13 09:29:00,22.4,13.4,30.27,WNW,299,6.0,12.0,68,0.00,,,0.00,338,Wunderground v.1.15,2013-03-13 14:29:00,
2013-03-13 09:34:00,22.2,13.6,30.27,WNW,292,4.0,12.0,69,0.00,,,0.00,341,Wunderground v.1.15,2013-03-13 14:34:00,
2013-03-13 09:39:00,22.4,13.8,30.27,West,269,7.0,12.0,69,0.00,,,0.00,471,Wunderground v.1.15,2013-03-13 14:39:00,
2013-03-13 09:44:00,22.8,13.8,30.27,NW,307,7.0,16.0,68,0.00,,,0.00,471,Wunderground v.1.15,2013-03-13 14:44:00,
2013-03-13 09:49:00,23.0,13.7,30.28,NW,304,6.0,16.0,67,0.00,,,0.00,485,Wunderground v.1.15,2013-03-13 14:49:00,
2013-03-13 09:54:00,23.1,13.4,30.28,WSW,243,9.0,15.0,66,0.00,,,0.00,485,Wunderground v.1.15,2013-03-13 14:54:00,
2013-03-13 09:59:00,23.3,13.3,30.28,West,274,9.0,17.0,65,0.00,,,0.00,515,Wunderground v.1.15,2013-03-13 14:59:00,
2013-03-13 10:04:00,23.2,13.2,30.29,NW,306,7.0,15.0,65,0.00,,,0.00,526,Wunderground v.1.15,2013-03-13 15:04:00,
2013-03-13 10:09:00,23.4,13.4,30.29,NNW,338,8.0,15.0,65,0.00,,,0.00,540,Wunderground v.1.15,2013-03-13 15:09:00,
2013-03-13 10:14:00,23.7,13.3,30.29,NW,304,7.0,14.0,64,0.00,,,0.00,554,Wunderground v.1.15,2013-03-13 15:14:00,
2013-03-13 10:19:00,24.0,13.2,30.29,West,271,6.0,14.0,63,0.00,,,0.00,564,Wunderground v.1.15,2013-03-13 15:19:00,
2013-03-13 10:24:00,24.0,13.2,30.29,NW,323,5.0,13.0,63,0.00,,,0.00,580,Wunderground v.1.15,2013-03-13 15:24:00,
2013-03-13 10:29:00,24.3,13.1,30.29,North,5,8.0,13.0,62,0.00,,,0.00,591,Wunderground v.1.15,2013-03-13 15:29:00,
2013-03-13 10:34:00,24.4,12.9,30.30,NW,311,4.0,17.0,61,0.00,,,0.00,601,Wunderground v.1.15,2013-03-13 15:34:00,
2013-03-13 10:39:00,25.0,13.4,30.30,NW,306,4.0,17.0,61,0.00,,,0.00,613,Wunderground v.1.15,2013-03-13 15:39:00,
2013-03-13 10:44:00,25.4,13.4,30.29,NW,315,9.0,10.0,60,0.00,,,0.00,629,Wunderground v.1.15,2013-03-13 15:44:00,
2013-03-13 10:49:00,25.7,13.3,30.30,NW,313,4.0,12.0,59,0.00,,,0.00,638,Wunderground v.1.15,2013-03-13 15:49:00,
2013-03-13 10:54:00,26.1,13.7,30.30,WNW,296,4.0,11.0,59,0.00,,,0.00,650,Wunderground v.1.15,2013-03-13 15:54:00,
2013-03-13 10:59:00,26.5,13.7,30.30,West,267,3.0,11.0,58,0.00,,,0.00,661,Wunderground v.1.15,2013-03-13 15:59:00,
2013-03-13 11:04:00,26.6,12.6,30.31,WNW,288,6.0,12.0,55,0.00,,,0.00,670,Wunderground v.1.15,2013-03-13 16:04:00,
2013-03-13 11:09:00,26.5,12.5,30.31,NW,311,7.0,12.0,55,0.00,,,0.00,680,Wunderground v.1.15,2013-03-13 16:09:00,
2013-03-13 11:14:00,26.4,12.4,30.31,WNW,291,4.0,15.0,55,0.00,,,0.00,691,Wunderground v.1.15,2013-03-13 16:14:00,
2013-03-13 11:19:00,26.4,11.6,30.31,NW,304,10.0,16.0,53,0.00,,,0.00,698,Wunderground v.1.15,2013-03-13 16:19:00,
2013-03-13 11:24:00,26.5,11.2,30.31,NW,304,8.0,19.0,52,0.00,,,0.00,710,Wunderground v.1.15,2013-03-13 16:24:00,
2013-03-13 11:29:00,26.5,11.2,30.31,NW,322,10.0,19.0,52,0.00,,,0.00,717,Wunderground v.1.15,2013-03-13 16:29:00,
2013-03-13 11:34:00,26.7,11.8,30.31,WNW,293,7.0,17.0,53,0.00,,,0.00,722,Wunderground v.1.15,2013-03-13 16:34:00,
2013-03-13 11:39:00,26.9,12.0,30.31,WNW,295,7.0,17.0,53,0.00,,,0.00,729,Wunderground v.1.15,2013-03-13 16:39:00,
2013-03-13 11:44:00,27.1,11.8,30.31,NW,325,8.0,14.0,52,0.00,,,0.00,737,Wunderground v.1.15,2013-03-13 16:44:00,
2013-03-13 11:49:00,27.2,11.0,30.31,NW,323,14.0,15.0,50,0.00,,,0.00,744,Wunderground v.1.15,2013-03-13 16:49:00,
2013-03-13 11:54:00,27.0,11.3,30.31,NW,325,6.0,17.0,51,0.00,,,0.00,751,Wunderground v.1.15,2013-03-13 16:54:00,
2013-03-13 11:59:00,27.2,11.9,30.32,NW,316,6.0,17.0,52,0.00,,,0.00,756,Wunderground v.1.15,2013-03-13 16:59:00,
2013-03-13 12:04:00,27.4,12.1,30.32,NW,325,6.0,17.0,52,0.00,,,0.00,763,Wunderground v.1.15,2013-03-13 17:04:00,
2013-03-13 12:09:00,27.4,11.2,30.32,West,277,14.0,20.0,50,0.00,,,0.00,768,Wunderground v.1.15,2013-03-13 17:09:00,
2013-03-13 12:14:00,27.2,10.5,30.32,West,276,12.0,15.0,49,0.00,,,0.00,772,Wunderground v.1.15,2013-03-13 17:14:00,
2013-03-13 12:19:00,27.4,11.2,30.31,NW,306,12.0,15.0,50,0.00,,,0.00,777,Wunderground v.1.15,2013-03-13 17:19:00,
2013-03-13 12:24:00,27.6,11.4,30.32,North,351,8.0,15.0,50,0.00,,,0.00,779,Wunderground v.1.15,2013-03-13 17:24:00,
2013-03-13 12:29:00,27.8,11.5,30.32,NW,324,10.0,16.0,50,0.00,,,0.00,784,Wunderground v.1.15,2013-03-13 17:29:00,
2013-03-13 12:34:00,27.9,9.8,30.32,WNW,292,12.0,20.0,46,0.00,,,0.00,786,Wunderground v.1.15,2013-03-13 17:34:00,
2013-03-13 12:39:00,27.8,10.2,30.32,NW,326,18.0,20.0,47,0.00,,,0.00,788,Wunderground v.1.15,2013-03-13 17:39:00,
2013-03-13 12:44:00,28.0,10.3,30.32,WNW,296,11.0,14.0,47,0.00,,,0.00,789,Wunderground v.1.15,2013-03-13 17:44:00,
2013-03-13 12:49:00,28.0,9.4,30.32,NW,318,11.0,17.0,45,0.00,,,0.00,789,Wunderground v.1.15,2013-03-13 17:49:00,
2013-03-13 12:54:00,28.3,9.6,30.31,West,281,13.0,14.0,45,0.00,,,0.00,791,Wunderground v.1.15,2013-03-13 17:54:00,
2013-03-13 12:59:00,28.3,9.1,30.32,WNW,283,6.0,21.0,44,0.00,,,0.00,791,Wunderground v.1.15,2013-03-13 17:59:00,
2013-03-13 13:04:00,28.6,9.4,30.32,NW,326,12.0,15.0,44,0.00,,,0.00,793,Wunderground v.1.15,2013-03-13 18:04:00,
2013-03-13 13:09:00,28.8,9.6,30.32,West,271,10.0,17.0,44,0.00,,,0.00,791,Wunderground v.1.15,2013-03-13 18:09:00,
2013-03-13 13:14:00,29.0,9.8,30.32,West,266,3.0,14.0,44,0.00,,,0.00,791,Wunderground v.1.15,2013-03-13 18:14:00,
2013-03-13 13:19:00,29.2,9.4,30.32,WNW,293,11.0,15.0,43,0.00,,,0.00,788,Wunderground v.1.15,2013-03-13 18:19:00,
2013-03-13 13:24:00,29.3,9.5,30.32,NW,326,11.0,15.0,43,0.00,,,0.00,788,Wunderground v.1.15,2013-03-13 18:24:00,
2013-03-13 13:29:00,29.0,8.7,30.32,West,261,7.0,17.0,42,0.00,,,0.00,782,Wunderground v.1.15,2013-03-13 18:29:00,
2013-03-13 13:34:00,29.1,8.8,30.32,WSW,254,3.0,16.0,42,0.00,,,0.00,777,Wunderground v.1.15,2013-03-13 18:34:00,
2013-03-13 13:39:00,29.4,9.1,30.32,NW,304,6.0,17.0,42,0.00,,,0.00,773,Wunderground v.1.15,2013-03-13 18:39:00,
2013-03-13 13:44:00,29.6,11.3,30.32,WNW,302,5.0,13.0,46,0.00,,,0.00,766,Wunderground v.1.15,2013-03-13 18:44:00,
2013-03-13 13:49:00,29.9,11.1,30.33,WSW,248,5.0,13.0,45,0.00,,,0.00,765,Wunderground v.1.15,2013-03-13 18:49:00,
2013-03-13 13:54:00,29.9,11.1,30.33,NW,310,6.0,15.0,45,0.00,,,0.00,758,Wunderground v.1.15,2013-03-13 18:54:00,
2013-03-13 13:59:00,29.9,11.6,30.33,West,263,4.0,15.0,46,0.00,,,0.00,752,Wunderground v.1.15,2013-03-13 18:59:00,
2013-03-13 14:04:00,30.2,10.4,30.32,NW,316,6.0,13.0,43,0.00,,,0.00,749,Wunderground v.1.15,2013-03-13 19:04:00,
2013-03-13 14:09:00,30.1,10.3,30.32,WNW,290,5.0,17.0,43,0.00,,,0.00,744,Wunderground v.1.15,2013-03-13 19:09:00,
2013-03-13 14:14:00,30.1,10.8,30.32,West,281,5.0,16.0,44,0.00,,,0.00,738,Wunderground v.1.15,2013-03-13 19:14:00,
2013-03-13 14:19:00,30.1,10.8,30.32,NW,304,8.0,16.0,44,0.00,,,0.00,729,Wunderground v.1.15,2013-03-13 19:19:00,
2013-03-13 14:24:00,30.3,11.0,30.32,WNW,291,13.0,14.0,44,0.00,,,0.00,724,Wunderground v.1.15,2013-03-13 19:24:00,
2013-03-13 14:29:00,30.1,10.3,30.32,NW,325,8.0,17.0,43,0.00,,,0.00,717,Wunderground v.1.15,2013-03-13 19:29:00,
2013-03-13 14:34:00,30.2,10.9,30.32,WNW,298,15.0,18.0,44,0.00,,,0.00,707,Wunderground v.1.15,2013-03-13 19:34:00,
2013-03-13 14:39:00,30.3,11.5,30.32,WNW,288,5.0,18.0,45,0.00,,,0.00,700,Wunderground v.1.15,2013-03-13 19:39:00,
2013-03-13 14:44:00,30.5,10.1,30.32,NW,307,7.0,13.0,42,0.00,,,0.00,694,Wunderground v.1.15,2013-03-13 19:44:00,
2013-03-13 14:49:00,30.5,10.1,30.32,NW,304,8.0,17.0,42,0.00,,,0.00,686,Wunderground v.1.15,2013-03-13 19:49:00,
2013-03-13 14:54:00,30.6,10.7,30.32,NW,315,6.0,15.0,43,0.00,,,0.00,679,Wunderground v.1.15,2013-03-13 19:54:00,
2013-03-13 14:59:00,30.7,11.3,30.32,NW,325,9.0,15.0,44,0.00,,,0.00,671,Wunderground v.1.15,2013-03-13 19:59:00,
2013-03-13 15:04:00,30.6,11.7,30.32,WNW,302,16.0,17.0,45,0.00,,,0.00,659,Wunderground v.1.15,2013-03-13 20:04:00,
2013-03-13 15:09:00,30.8,11.9,30.32,NW,307,7.0,17.0,45,0.00,,,0.00,649,Wunderground v.1.15,2013-03-13 20:09:00,
2013-03-13 15:14:00,30.9,11.5,30.32,WNW,292,5.0,13.0,44,0.00,,,0.00,636,Wunderground v.1.15,2013-03-13 20:14:00,
2013-03-13 15:19:00,31.0,11.6,30.32,WNW,298,9.0,15.0,44,0.00,,,0.00,626,Wunderground v.1.15,2013-03-13 20:19:00,
2013-03-13 15:24:00,31.2,11.8,30.32,West,273,8.0,13.0,44,0.00,,,0.00,613,Wunderground v.1.15,2013-03-13 20:24:00,
2013-03-13 15:29:00,31.2,11.3,30.32,West,271,11.0,14.0,43,0.00,,,0.00,601,Wunderground v.1.15,2013-03-13 20:29:00,
2013-03-13 15:34:00,31.0,11.1,30.33,NW,309,12.0,18.0,43,0.00,,,0.00,589,Wunderground v.1.15,2013-03-13 20:34:00,
2013-03-13 15:39:00,31.2,11.3,30.33,WNW,296,14.0,18.0,43,0.00,,,0.00,577,Wunderground v.1.15,2013-03-13 20:39:00,
2013-03-13 15:44:00,31.2,11.3,30.32,West,275,9.0,12.0,43,0.00,,,0.00,564,Wunderground v.1.15,2013-03-13 20:44:00,
2013-03-13 15:49:00,31.5,11.5,30.32,West,271,5.0,12.0,43,0.00,,,0.00,550,Wunderground v.1.15,2013-03-13 20:49:00,
2013-03-13 15:54:00,31.6,11.6,30.33,WSW,255,6.0,14.0,43,0.00,,,0.00,538,Wunderground v.1.15,2013-03-13 20:54:00,
2013-03-13 15:59:00,31.5,11.0,30.33,WNW,299,6.0,14.0,42,0.00,,,0.00,527,Wunderground v.1.15,2013-03-13 20:59:00,
2013-03-13 16:04:00,31.5,10.5,30.33,WNW,298,11.0,16.0,41,0.00,,,0.00,512,Wunderground v.1.15,2013-03-13 21:04:00,
2013-03-13 16:09:00,31.5,11.5,30.33,West,277,6.0,16.0,43,0.00,,,0.00,497,Wunderground v.1.15,2013-03-13 21:09:00,
2013-03-13 16:14:00,31.4,10.9,30.33,WNW,296,7.0,13.0,42,0.00,,,0.00,480,Wunderground v.1.15,2013-03-13 21:14:00,
2013-03-13 16:19:00,31.6,11.1,30.33,WSW,244,3.0,13.0,42,0.00,,,0.00,468,Wunderground v.1.15,2013-03-13 21:19:00,
2013-03-13 16:24:00,31.7,11.2,30.33,NW,307,4.0,14.0,42,0.00,,,0.00,452,Wunderground v.1.15,2013-03-13 21:24:00,
2013-03-13 16:29:00,31.7,10.7,30.33,West,276,6.0,14.0,41,0.00,,,0.00,439,Wunderground v.1.15,2013-03-13 21:29:00,
2013-03-13 16:34:00,31.7,10.7,30.33,WNW,294,10.0,11.0,41,0.00,,,0.00,422,Wunderground v.1.15,2013-03-13 21:34:00,
2013-03-13 16:39:00,31.7,10.1,30.33,West,281,8.0,14.0,40,0.00,,,0.00,410,Wunderground v.1.15,2013-03-13 21:39:00,
2013-03-13 16:44:00,31.9,11.4,30.33,West,263,9.0,10.0,42,0.00,,,0.00,390,Wunderground v.1.15,2013-03-13 21:44:00,
2013-03-13 16:49:00,32.0,10.4,30.33,WNW,300,4.0,11.0,40,0.00,,,0.00,374,Wunderground v.1.15,2013-03-13 21:49:00,
2013-03-13 16:54:00,32.2,11.6,30.33,NW,315,5.0,7.0,42,0.00,,,0.00,360,Wunderground v.1.15,2013-03-13 21:54:00,
2013-03-13 16:59:00,32.4,11.8,30.33,West,279,8.0,9.0,42,0.00,,,0.00,341,Wunderground v.1.15,2013-03-13 21:59:00,
2013-03-13 17:04:00,32.4,10.7,30.33,NW,309,2.0,10.0,40,0.00,,,0.00,334,Wunderground v.1.15,2013-03-13 22:04:00,
2013-03-13 17:09:00,32.3,10.6,30.33,NW,311,4.0,10.0,40,0.00,,,0.00,316,Wunderground v.1.15,2013-03-13 22:09:00,
2013-03-13 17:14:00,32.2,10.5,30.33,West,275,4.0,9.0,40,0.00,,,0.00,299,Wunderground v.1.15,2013-03-13 22:14:00,
2013-03-13 17:19:00,31.9,9.7,30.33,West,271,7.0,9.0,39,0.00,,,0.00,279,Wunderground v.1.15,2013-03-13 22:19:00,
2013-03-13 17:24:00,31.8,10.2,30.33,WNW,292,5.0,9.0,40,0.00,,,0.00,251,Wunderground v.1.15,2013-03-13 22:24:00,
2013-03-13 17:29:00,31.7,10.1,30.33,NW,306,3.0,10.0,40,0.00,,,0.00,207,Wunderground v.1.15,2013-03-13 22:29:00,
2013-03-13 17:34:00,31.7,9.5,30.33,WNW,296,4.0,9.0,39,0.00,,,0.00,195,Wunderground v.1.15,2013-03-13 22:34:00,
2013-03-13 17:39:00,31.6,9.4,30.33,NW,315,7.0,10.0,39,0.00,,,0.00,148,Wunderground v.1.15,2013-03-13 22:39:00,
2013-03-13 17:44:00,31.5,9.9,30.33,WNW,296,5.0,8.0,40,0.00,,,0.00,130,Wunderground v.1.15,2013-03-13 22:44:00,
2013-03-13 17:49:00,31.5,10.5,30.33,WNW,291,4.0,10.0,41,0.00,,,0.00,127,Wunderground v.1.15,2013-03-13 22:49:00,
2013-03-13 17:54:00,31.4,10.4,30.34,NW,309,4.0,8.0,41,0.00,,,0.00,88,Wunderground v.1.15,2013-03-13 22:54:00,
2013-03-13 17:59:00,31.4,10.4,30.33,West,263,4.0,8.0,41,0.00,,,0.00,76,Wunderground v.1.15,2013-03-13 22:59:00,
2013-03-13 18:04:00,31.3,10.8,30.34,WNW,288,0.0,10.0,42,0.00,,,0.00,63,Wunderground v.1.15,2013-03-13 23:04:00,
2013-03-13 18:09:00,31.4,10.9,30.34,West,260,2.0,10.0,42,0.00,,,0.00,69,Wunderground v.1.15,2013-03-13 23:09:00,
2013-03-13 18:14:00,31.4,10.4,30.34,West,274,4.0,5.0,41,0.00,,,0.00,69,Wunderground v.1.15,2013-03-13 23:14:00,
2013-03-13 18:19:00,31.4,10.4,30.34,WNW,302,2.0,7.0,41,0.00,,,0.00,53,Wunderground v.1.15,2013-03-13 23:19:00,
2013-03-13 18:24:00,31.3,9.7,30.34,WNW,293,3.0,9.0,40,0.00,,,0.00,44,Wunderground v.1.15,2013-03-13 23:24:00,
2013-03-13 18:29:00,31.1,9.0,30.34,NW,309,5.0,9.0,39,0.00,,,0.00,32,Wunderground v.1.15,2013-03-13 23:29:00,
2013-03-13 18:34:00,31.0,10.0,30.34,WNW,290,3.0,4.0,41,0.00,,,0.00,25,Wunderground v.1.15,2013-03-13 23:34:00,
2013-03-13 18:39:00,30.8,9.8,30.34,NW,313,7.0,7.0,41,0.00,,,0.00,21,Wunderground v.1.15,2013-03-13 23:39:00,
2013-03-13 18:44:00,30.5,9.6,30.34,WNW,294,3.0,8.0,41,0.00,,,0.00,18,Wunderground v.1.15,2013-03-13 23:44:00,
2013-03-13 18:49:00,30.2,9.8,30.34,West,281,4.0,8.0,42,0.00,,,0.00,14,Wunderground v.1.15,2013-03-13 23:49:00,
2013-03-13 18:54:00,29.9,9.6,30.34,WNW,296,2.0,5.0,42,0.00,,,0.00,11,Wunderground v.1.15,2013-03-13 23:54:00,
2013-03-13 18:59:00,29.6,9.8,30.33,WNW,300,3.0,5.0,43,0.00,,,0.00,5,Wunderground v.1.15,2013-03-13 23:59:00,
2013-03-13 19:04:00,29.4,9.6,30.34,WNW,294,1.0,5.0,43,0.00,,,0.00,0,Wunderground v.1.15,2013-03-14 00:04:00,
2013-03-13 19:09:00,29.2,10.0,30.34,WNW,294,3.0,5.0,44,0.00,,,0.00,0,Wunderground v.1.15,2013-03-14 00:09:00,
2013-03-13 19:14:00,29.0,10.3,30.34,WNW,294,1.0,3.0,45,0.00,,,0.00,0,Wunderground v.1.15,2013-03-14 00:14:00,
2013-03-13 19:19:00,28.7,10.5,30.34,WNW,294,0.0,3.0,46,0.00,,,0.00,0,Wunderground v.1.15,2013-03-14 00:19:00,
2013-03-13 19:24:00,28.5,10.8,30.34,WNW,294,0.0,1.0,47,0.00,,,0.00,0,Wunderground v.1.15,2013-03-14 00:24:00,
2013-03-13 19:29:00,28.3,10.1,30.34,WNW,294,0.0,1.0,46,0.00,,,0.00,0,Wunderground v.1.15,2013-03-14 00:29:00,
2013-03-13 19:34:00,28.0,10.8,30.34,WNW,294,0.0,0.0,48,0.00,,,0.00,0,Wunderground v.1.15,2013-03-14 00:34:00,
2013-03-13 19:39:00,27.8,10.6,30.34,WNW,294,1.0,2.0,48,0.00,,,0.00,0,Wunderground v.1.15,2013-03-14 00:39:00,
2013-03-13 19:44:00,27.5,10.8,30.34,WNW,294,1.0,3.0,49,0.00,,,0.00,0,Wunderground v.1.15,2013-03-14 00:44:00,
2013-03-13 19:49:00,27.3,11.1,30.34,WNW,294,0.0,3.0,50,0.00,,,0.00,0,Wunderground v.1.15,2013-03-14 00:49:00,
2013-03-13 19:54:00,27.2,11.0,30.34,WNW,294,2.0,3.0,50,0.00,,,0.00,0,Wunderground v.1.15,2013-03-14 00:54:00,
2013-03-13 19:59:00,27.0,11.3,30.34,West,271,0.0,3.0,51,0.00,,,0.00,0,Wunderground v.1.15,2013-03-14 00:59:00,
2013-03-13 20:04:00,26.8,10.6,30.34,West,271,1.0,3.0,50,0.00,,,0.00,0,Wunderground v.1.15,2013-03-14 01:04:00,
2013-03-13 20:09:00,26.7,11.0,30.35,West,271,0.0,3.0,51,0.00,,,0.00,0,Wunderground v.1.15,2013-03-14 01:09:00,
2013-03-13 20:14:00,26.5,11.2,30.35,West,271,0.0,1.0,52,0.00,,,0.00,0,Wunderground v.1.15,2013-03-14 01:14:00,
2013-03-13 20:18:00,26.3,11.5,30.35,West,271,0.0,1.0,53,0.00,,,0.00,0,Wunderground v.1.15,2013-03-14 01:18:00,
2013-03-13 20:23:00,26.1,10.4,30.35,West,271,0.0,2.0,51,0.00,,,0.00,0,Wunderground v.1.15,2013-03-14 01:23:00,
2013-03-13 20:29:00,25.9,10.7,30.34,West,271,0.0,2.0,52,0.00,,,0.00,0,Wunderground v.1.15,2013-03-14 01:29:00,
2013-03-13 20:33:00,25.7,10.5,30.34,West,271,0.0,1.0,52,0.00,,,0.00,0,Wunderground v.1.15,2013-03-14 01:33:00,
2013-03-13 20:39:00,25.6,10.8,30.34,West,271,0.0,1.0,53,0.00,,,0.00,0,Wunderground v.1.15,2013-03-14 01:39:00,
2013-03-13 20:44:00,25.4,11.5,30.34,West,271,0.0,0.0,55,0.00,,,0.00,0,Wunderground v.1.15,2013-03-14 01:44:00,
2013-03-13 20:49:00,25.1,10.8,30.34,West,271,1.0,1.0,54,0.00,,,0.00,0,Wunderground v.1.15,2013-03-14 01:49:00,
2013-03-13 20:53:00,24.9,11.0,30.34,West,271,0.0,0.0,55,0.00,,,0.00,0,Wunderground v.1.15,2013-03-14 01:53:00,
2013-03-13 20:59:00,24.8,10.9,30.34,West,271,0.0,0.0,55,0.00,,,0.00,0,Wunderground v.1.15,2013-03-14 01:59:00,
2013-03-13 21:04:00,24.6,11.1,30.34,West,271,0.0,0.0,56,0.00,,,0.00,0,Wunderground v.1.15,2013-03-14 02:04:00,
2013-03-13 21:08:00,24.4,10.9,30.34,West,271,0.0,0.0,56,0.00,,,0.00,0,Wunderground v.1.15,2013-03-14 02:08:00,
2013-03-13 21:13:00,24.2,10.7,30.34,West,271,0.0,0.0,56,0.00,,,0.00,0,Wunderground v.1.15,2013-03-14 02:13:00,
2013-03-13 21:18:00,23.9,10.5,30.34,West,271,0.0,0.0,56,0.00,,,0.00,0,Wunderground v.1.15,2013-03-14 02:18:00,
2013-03-13 21:23:00,23.6,11.4,30.35,West,271,0.0,0.0,59,0.00,,,0.00,0,Wunderground v.1.15,2013-03-14 02:23:00,
2013-03-13 21:28:00,23.4,11.9,30.35,West,271,0.0,0.0,61,0.00,,,0.00,0,Wunderground v.1.15,2013-03-14 02:28:00,
2013-03-13 21:33:00,23.1,11.6,30.35,West,271,0.0,0.0,61,0.00,,,0.00,0,Wunderground v.1.15,2013-03-14 02:33:00,
2013-03-13 21:38:00,22.7,11.3,30.35,West,271,0.0,0.0,61,0.00,,,0.00,0,Wunderground v.1.15,2013-03-14 02:38:00,
2013-03-13 21:43:00,22.5,11.4,30.34,West,271,0.0,0.0,62,0.00,,,0.00,0,Wunderground v.1.15,2013-03-14 02:43:00,
2013-03-13 21:48:00,22.4,11.3,30.35,West,271,0.0,1.0,62,0.00,,,0.00,0,Wunderground v.1.15,2013-03-14 02:48:00,
2013-03-13 21:53:00,22.2,11.5,30.34,West,271,0.0,0.0,63,0.00,,,0.00,0,Wunderground v.1.15,2013-03-14 02:53:00,
2013-03-13 21:58:00,21.9,11.6,30.34,West,271,0.0,0.0,64,0.00,,,0.00,0,Wunderground v.1.15,2013-03-14 02:58:00,
2013-03-13 22:03:00,21.6,11.6,30.34,West,271,0.0,0.0,65,0.00,,,0.00,0,Wunderground v.1.15,2013-03-14 03:03:00,
2013-03-13 22:08:00,21.3,11.7,30.34,West,271,0.0,0.0,66,0.00,,,0.00,0,Wunderground v.1.15,2013-03-14 03:08:00,
2013-03-13 22:13:00,20.9,11.7,30.34,West,271,0.0,0.0,67,0.00,,,0.00,0,Wunderground v.1.15,2013-03-14 03:13:00,
2013-03-13 22:18:00,20.5,11.6,30.34,West,271,0.0,0.0,68,0.00,,,0.00,0,Wunderground v.1.15,2013-03-14 03:18:00,
2013-03-13 22:23:00,20.2,11.7,30.34,West,271,0.0,0.0,69,0.00,,,0.00,0,Wunderground v.1.15,2013-03-14 03:23:00,
2013-03-13 22:28:00,19.9,11.7,30.34,West,271,0.0,0.0,70,0.00,,,0.00,0,Wunderground v.1.15,2013-03-14 03:28:00,
2013-03-13 22:33:00,19.6,11.7,30.35,West,271,0.0,0.0,71,0.00,,,0.00,0,Wunderground v.1.15,2013-03-14 03:33:00,
2013-03-13 22:38:00,19.4,11.8,30.35,West,271,0.0,0.0,72,0.00,,,0.00,0,Wunderground v.1.15,2013-03-14 03:38:00,
2013-03-13 22:43:00,19.3,11.7,30.35,West,271,0.0,0.0,72,0.00,,,0.00,0,Wunderground v.1.15,2013-03-14 03:43:00,
2013-03-13 22:48:00,19.3,11.4,30.35,West,271,0.0,0.0,71,0.00,,,0.00,0,Wunderground v.1.15,2013-03-14 03:48:00,
2013-03-13 22:53:00,19.1,11.6,30.35,West,271,0.0,0.0,72,0.00,,,0.00,0,Wunderground v.1.15,2013-03-14 03:53:00,
2013-03-13 22:58:00,19.0,11.5,30.35,West,271,0.0,0.0,72,0.00,,,0.00,0,Wunderground v.1.15,2013-03-14 03:58:00,
2013-03-13 23:00:00,18.9,11.4,30.35,West,271,0.0,0.0,72,0.00,,,0.00,0,Wunderground v.1.15,2013-03-14 04:00:00,
2013-03-13 23:05:00,18.9,11.7,30.35,West,271,0.0,1.0,73,0.00,,,0.00,0,Wunderground v.1.15,2013-03-14 04:05:00,
2013-03-13 23:10:00,19.2,11.6,30.35,West,271,0.0,0.0,72,0.00,,,0.00,0,Wunderground v.1.15,2013-03-14 04:10:00,
2013-03-13 23:15:00,19.5,11.9,30.35,West,271,0.0,1.0,72,0.00,,,0.00,0,Wunderground v.1.15,2013-03-14 04:15:00,
2013-03-13 23:20:00,19.5,11.9,30.35,West,271,0.0,0.0,72,0.00,,,0.00,0,Wunderground v.1.15,2013-03-14 04:20:00,
2013-03-13 23:25:00,19.3,11.7,30.35,West,271,0.0,0.0,72,0.00,,,0.00,0,Wunderground v.1.15,2013-03-14 04:25:00,
2013-03-13 23:30:00,19.1,11.6,30.35,West,271,0.0,0.0,72,0.00,,,0.00,0,Wunderground v.1.15,2013-03-14 04:30:00,
2013-03-13 23:35:00,18.9,11.7,30.35,West,271,0.0,0.0,73,0.00,,,0.00,0,Wunderground v.1.15,2013-03-14 04:35:00,
2013-03-13 23:40:00,18.5,11.3,30.35,West,271,0.0,0.0,73,0.00,,,0.00,0,Wunderground v.1.15,2013-03-14 04:40:00,
2013-03-13 23:45:00,18.1,10.9,30.35,West,271,0.0,0.0,73,0.00,,,0.00,0,Wunderground v.1.15,2013-03-14 04:45:00,
2013-03-13 23:50:00,17.9,11.0,30.35,West,271,0.0,0.0,74,0.00,,,0.00,0,Wunderground v.1.15,2013-03-14 04:50:00,
2013-03-13 23:55:00,17.8,11.2,30.35,West,271,1.0,2.0,75,0.00,,,0.00,0,Wunderground v.1.15,2013-03-14 04:55:00,